TimeEDT,TemperatureF,Dew PointF,Humidity,Sea Level PressureIn,VisibilityMPH,Wind Direction,Wind SpeedMPH,Gust SpeedMPH,PrecipitationIn,Events,Conditions,WindDirDegrees,DateUTC
12:53 AM,39.0,21.0,49,30.08,10.0,NW,10.4,21.9,N/A,,Clear,310,2014-04-06 04:53:00
1:53 AM,37.9,21.9,53,30.08,10.0,NW,11.5,19.6,N/A,,Clear,310,2014-04-06 05:53:00
2:53 AM,37.0,21.9,54,30.09,10.0,West,9.2,-,N/A,,Clear,280,2014-04-06 06:53:00
3:53 AM,36.0,21.9,57,30.09,10.0,WNW,6.9,-,N/A,,Clear,290,2014-04-06 07:53:00
4:53 AM,35.1,21.9,59,30.12,10.0,West,6.9,-,N/A,,Clear,280,2014-04-06 08:53:00
5:53 AM,35.1,21.9,59,30.14,10.0,West,6.9,-,N/A,,Clear,280,2014-04-06 09:53:00
6:53 AM,34.0,23.0,64,30.18,10.0,West,6.9,-,N/A,,Clear,280,2014-04-06 10:53:00
7:53 AM,37.0,23.0,57,30.19,10.0,WNW,10.4,-,N/A,,Clear,290,2014-04-06 11:53:00
8:53 AM,39.9,21.9,49,30.20,10.0,WNW,5.8,-,N/A,,Clear,300,2014-04-06 12:53:00
9:53 AM,42.1,21.9,45,30.20,10.0,NNE,4.6,-,N/A,,Clear,20,2014-04-06 13:53:00
10:53 AM,45.0,19.9,37,30.21,10.0,NW,6.9,-,N/A,,Clear,310,2014-04-06 14:53:00
11:53 AM,46.9,21.0,36,30.19,10.0,West,4.6,-,N/A,,Clear,270,2014-04-06 15:53:00
12:53 PM,50.0,19.0,29,30.18,10.0,Variable,4.6,-,N/A,,Clear,0,2014-04-06 16:53:00
1:53 PM,51.1,18.0,27,30.18,10.0,Calm,Calm,-,N/A,,Clear,0,2014-04-06 17:53:00
2:53 PM,53.1,18.0,25,30.19,10.0,West,9.2,-,N/A,,Clear,280,2014-04-06 18:53:00
3:53 PM,55.0,23.0,29,30.17,10.0,Variable,4.6,-,N/A,,Clear,0,2014-04-06 19:53:00
4:53 PM,55.9,21.9,27,30.14,10.0,SW,8.1,-,N/A,,Clear,220,2014-04-06 20:53:00
5:53 PM,55.9,21.9,27,30.14,10.0,Variable,6.9,-,N/A,,Clear,0,2014-04-06 21:53:00
6:53 PM,46.0,30.9,56,30.15,10.0,South,8.1,-,N/A,,Clear,180,2014-04-06 22:53:00
7:53 PM,44.1,28.0,53,30.18,10.0,SW,6.9,-,N/A,,Clear,230,2014-04-06 23:53:00
8:53 PM,42.1,32.0,67,30.25,10.0,SW,12.7,20.7,N/A,,Clear,230,2014-04-07 00:53:00
9:53 PM,41.0,30.9,67,30.23,10.0,SW,5.8,-,N/A,,Clear,230,2014-04-07 01:53:00
10:53 PM,39.9,32.0,73,30.22,10.0,SW,6.9,-,N/A,,Clear,230,2014-04-07 02:53:00
11:53 PM,39.9,30.9,70,30.23,10.0,SW,4.6,-,N/A,,Clear,230,2014-04-07 03:53:00